| time (UTC) | temp C | wind direction | speed KPH | gust KPH | rain 1hr cm | rain 24hr cm | rain mn cm | humidity % | barometer mb |
| 20260509234503 | 26 | 131 | 6.4 | 25.7 | 0.00 | 0.03 | 0.03 | 82 | 1009.9 |
| 20260509234003 | 26 | 128 | 3.2 | 25.7 | 0.00 | 0.03 | 0.03 | 87 | 1009.9 |
| 20260509233503 | 27 | 107 | 0.0 | 4.8 | 0.00 | 0.03 | 0.03 | 86 | 1009.7 |
| 20260509233003 | 27 | 0 | 0.0 | 0.0 | 0.00 | 0.03 | 0.03 | 85 | 1009.5 |
| 20260509232503 | 27 | 117 | 0.0 | 1.6 | 0.00 | 0.03 | 0.03 | 84 | 1009.4 |
| 20260509232003 | 27 | 117 | 0.0 | 1.6 | 0.00 | 0.03 | 0.03 | 83 | 1009.3 |
| 20260509231503 | 28 | 117 | 0.0 | 1.6 | 0.00 | 0.03 | 0.03 | 83 | 1009.2 |
| 20260509231003 | 28 | 0 | 0.0 | 0.0 | 0.00 | 0.03 | 0.03 | 82 | 1009.2 |
| 20260509230504 | 28 | 58 | 0.0 | 1.6 | 0.00 | 0.03 | 0.03 | 80 | 1009.1 |
| 20260509230004 | 28 | 52 | 0.0 | 1.6 | 0.00 | 0.03 | 0.03 | 80 | 1009.1 |
| 20260509225525 | 29 | 49 | 0.0 | 1.6 | 0.00 | 0.03 | 0.03 | 79 | 1009.0 |
| 20260509225004 | 29 | 49 | 0.0 | 1.6 | 0.00 | 0.03 | 0.03 | 77 | 1009.0 |
| 20260509224504 | 29 | 44 | 0.0 | 1.6 | 0.00 | 0.03 | 0.03 | 77 | 1008.9 |
| 20260509224004 | 29 | 37 | 0.0 | 1.6 | 0.00 | 0.03 | 0.03 | 76 | 1008.9 |
| 20260509223504 | 29 | 23 | 0.0 | 3.2 | 0.00 | 0.03 | 0.03 | 77 | 1008.9 |
| 20260509223004 | 30 | 25 | 1.6 | 4.8 | 0.00 | 0.03 | 0.03 | 78 | 1008.8 |
| 20260509222504 | 30 | 29 | 1.6 | 4.8 | 0.00 | 0.03 | 0.03 | 76 | 1008.8 |
| 20260509222004 | 30 | 73 | 1.6 | 3.2 | 0.00 | 0.03 | 0.03 | 76 | 1008.8 |
| 20260509221504 | 30 | 119 | 1.6 | 3.2 | 0.00 | 0.03 | 0.03 | 74 | 1008.8 |
| 20260509221004 | 30 | 89 | 1.6 | 3.2 | 0.00 | 0.03 | 0.03 | 74 | 1008.7 |
| 20260509220504 | 30 | 52 | 1.6 | 4.8 | 0.00 | 0.03 | 0.03 | 74 | 1008.6 |
| 20260509220004 | 30 | 326 | 1.6 | 4.8 | 0.00 | 0.03 | 0.03 | 74 | 1008.7 |
| 20260509215504 | 30 | 61 | 0.0 | 3.2 | 0.00 | 0.03 | 0.03 | 78 | 1008.7 |
| 20260509215004 | 29 | 41 | 1.6 | 3.2 | 0.00 | 0.03 | 0.03 | 78 | 1008.8 |
| 20260509214504 | 29 | 38 | 1.6 | 4.8 | 0.00 | 0.03 | 0.03 | 78 | 1008.7 |
| 20260509214004 | 29 | 353 | 3.2 | 6.4 | 0.00 | 0.03 | 0.03 | 77 | 1008.8 |
| 20260509213504 | 29 | 336 | 3.2 | 8.0 | 0.00 | 0.03 | 0.03 | 76 | 1008.8 |
| 20260509213004 | 30 | 335 | 1.6 | 8.0 | 0.00 | 0.03 | 0.03 | 78 | 1008.7 |
| 20260509212525 | 29 | 331 | 1.6 | 4.8 | 0.00 | 0.03 | 0.03 | 78 | 1008.9 |
| 20260509212004 | 28 | 329 | 1.6 | 3.2 | 0.00 | 0.03 | 0.03 | 80 | 1008.8 |
| 20260509211504 | 28 | 163 | 0.0 | 3.2 | 0.00 | 0.03 | 0.03 | 79 | 1009.0 |
| 20260509211004 | 28 | 145 | 1.6 | 3.2 | 0.00 | 0.03 | 0.03 | 80 | 1009.1 |
| 20260509210504 | 29 | 94 | 1.6 | 3.2 | 0.00 | 0.03 | 0.03 | 80 | 1009.1 |
| 20260509210004 | 28 | 84 | 1.6 | 4.8 | 0.00 | 0.03 | 0.03 | 81 | 1009.2 |
| 20260509205504 | 28 | 84 | 1.6 | 4.8 | 0.00 | 0.03 | 0.03 | 82 | 1009.4 |
| 20260509205004 | 28 | 10 | 1.6 | 3.2 | 0.00 | 0.03 | 0.03 | 83 | 1009.4 |
| 20260509204504 | 28 | 355 | 1.6 | 4.8 | 0.00 | 0.03 | 0.03 | 83 | 1009.4 |
| 20260509204004 | 28 | 349 | 1.6 | 4.8 | 0.00 | 0.03 | 0.03 | 81 | 1009.6 |
| 20260509203504 | 28 | 216 | 1.6 | 6.4 | 0.00 | 0.03 | 0.03 | 79 | 1009.7 |
| 20260509203004 | 28 | 178 | 3.2 | 8.0 | 0.00 | 0.03 | 0.03 | 79 | 1009.8 |
| 20260509202504 | 28 | 130 | 3.2 | 8.0 | 0.00 | 0.03 | 0.03 | 79 | 1009.8 |
| 20260509202025 | 28 | 109 | 3.2 | 8.0 | 0.00 | 0.03 | 0.03 | 80 | 1010.0 |
| 20260509201504 | 28 | 117 | 3.2 | 6.4 | 0.00 | 0.03 | 0.03 | 83 | 1010.0 |
| 20260509201004 | 27 | 126 | 3.2 | 6.4 | 0.00 | 0.03 | 0.03 | 85 | 1010.1 |
| 20260509200504 | 27 | 21 | 3.2 | 4.8 | 0.00 | 0.03 | 0.03 | 87 | 1010.0 |
| 20260509200025 | 27 | 358 | 3.2 | 4.8 | 0.00 | 0.03 | 0.03 | 86 | 1010.1 |
| 20260509195525 | 27 | 38 | 3.2 | 4.8 | 0.00 | 0.03 | 0.03 | 85 | 1010.2 |
| 20260509195004 | 27 | 143 | 1.6 | 8.0 | 0.00 | 0.03 | 0.03 | 83 | 1010.2 |
| 20260509194504 | 27 | 170 | 3.2 | 8.0 | 0.00 | 0.03 | 0.03 | 83 | 1010.1 |
| 20260509194004 | 27 | 172 | 3.2 | 8.0 | 0.00 | 0.03 | 0.03 | 84 | 1010.2 |
| 20260509193504 | 27 | 108 | 1.6 | 4.8 | 0.00 | 0.03 | 0.03 | 85 | 1010.2 |
| 20260509193004 | 27 | 87 | 1.6 | 4.8 | 0.00 | 0.03 | 0.03 | 85 | 1010.2 |
| 20260509192504 | 27 | 114 | 1.6 | 4.8 | 0.00 | 0.03 | 0.03 | 85 | 1010.3 |
| 20260509192004 | 27 | 118 | 1.6 | 3.2 | 0.00 | 0.03 | 0.03 | 85 | 1010.3 |
| 20260509191504 | 27 | 96 | 1.6 | 3.2 | 0.00 | 0.03 | 0.03 | 86 | 1010.3 |
| 20260509191004 | 27 | 316 | 1.6 | 6.4 | 0.00 | 0.03 | 0.03 | 85 | 1010.4 |
| 20260509190504 | 27 | 287 | 3.2 | 9.7 | 0.00 | 0.03 | 0.03 | 85 | 1010.5 |
| 20260509190004 | 27 | 216 | 3.2 | 9.7 | 0.00 | 0.03 | 0.03 | 87 | 1010.5 |
| 20260509185504 | 27 | 271 | 1.6 | 4.8 | 0.00 | 0.03 | 0.03 | 87 | 1010.6 |
| 20260509185025 | 26 | 304 | 1.6 | 4.8 | 0.00 | 0.03 | 0.03 | 88 | 1010.7 |
| 20260509184504 | 26 | 35 | 1.6 | 6.4 | 0.00 | 0.03 | 0.03 | 90 | 1010.6 |
| 20260509184004 | 26 | 22 | 1.6 | 6.4 | 0.00 | 0.03 | 0.03 | 91 | 1010.7 |
| 20260509183525 | 25 | 1 | 3.2 | 6.4 | 0.00 | 0.03 | 0.03 | 92 | 1010.8 |
| 20260509183004 | 25 | 1 | 3.2 | 6.4 | 0.00 | 0.03 | 0.03 | 92 | 1010.9 |
| 20260509182504 | 25 | 2 | 3.2 | 4.8 | 0.00 | 0.03 | 0.03 | 92 | 1011.0 |
| 20260509182004 | 25 | 343 | 3.2 | 4.8 | 0.00 | 0.03 | 0.03 | 92 | 1011.0 |
| 20260509181525 | 25 | 341 | 3.2 | 4.8 | 0.00 | 0.03 | 0.03 | 91 | 1011.1 |
| 20260509181004 | 25 | 8 | 3.2 | 4.8 | 0.00 | 0.03 | 0.03 | 91 | 1011.0 |
| 20260509180525 | 25 | 12 | 3.2 | 6.4 | 0.00 | 0.03 | 0.03 | 90 | 1011.2 |
| 20260509180004 | 25 | 348 | 3.2 | 8.0 | 0.00 | 0.03 | 0.03 | 89 | 1011.2 |
| 20260509175525 | 25 | 350 | 3.2 | 8.0 | 0.00 | 0.03 | 0.03 | 88 | 1011.3 |
| 20260509175004 | 25 | 13 | 1.6 | 6.4 | 0.00 | 0.03 | 0.03 | 87 | 1011.4 |
| 20260509174504 | 25 | 20 | 1.6 | 6.4 | 0.00 | 0.03 | 0.03 | 86 | 1011.4 |
| 20260509174004 | 25 | 81 | 1.6 | 4.8 | 0.00 | 0.03 | 0.03 | 86 | 1011.3 |
| 20260509173504 | 24 | 137 | 1.6 | 6.4 | 0.00 | 0.03 | 0.03 | 85 | 1011.4 |
| 20260509173004 | 24 | 153 | 1.6 | 6.4 | 0.00 | 0.03 | 0.03 | 85 | 1011.4 |
| 20260509172504 | 24 | 4 | 0.0 | 3.2 | 0.00 | 0.03 | 0.03 | 85 | 1011.5 |
| 20260509172004 | 23 | 319 | 0.0 | 3.2 | 0.00 | 0.03 | 0.03 | 85 | 1011.5 |
| 20260509171504 | 23 | 248 | 1.6 | 4.8 | 0.00 | 0.03 | 0.03 | 85 | 1011.6 |
| 20260509171004 | 23 | 253 | 1.6 | 4.8 | 0.00 | 0.03 | 0.03 | 84 | 1011.6 |
| 20260509170504 | 23 | 61 | 1.6 | 4.8 | 0.00 | 0.03 | 0.03 | 84 | 1011.8 |
| 20260509170025 | 23 | 89 | 1.6 | 4.8 | 0.00 | 0.10 | 0.03 | 84 | 1012.0 |
| 20260509165504 | 23 | 206 | 0.0 | 3.2 | 0.00 | 0.13 | 0.03 | 84 | 1012.1 |
| 20260509165004 | 23 | 237 | 0.0 | 3.2 | 0.00 | 0.13 | 0.03 | 84 | 1012.1 |
| 20260509164525 | 23 | 226 | 1.6 | 3.2 | 0.00 | 0.13 | 0.03 | 84 | 1012.2 |
| 20260509164004 | 23 | 197 | 1.6 | 3.2 | 0.00 | 0.15 | 0.03 | 84 | 1012.2 |
| 20260509163504 | 23 | 183 | 1.6 | 4.8 | 0.00 | 0.18 | 0.03 | 84 | 1012.3 |
| 20260509163004 | 23 | 214 | 1.6 | 4.8 | 0.00 | 0.18 | 0.03 | 84 | 1012.3 |
| 20260509162504 | 23 | 211 | 1.6 | 6.4 | 0.00 | 0.20 | 0.03 | 84 | 1012.3 |
| 20260509162004 | 23 | 169 | 3.2 | 8.0 | 0.00 | 0.48 | 0.03 | 84 | 1012.3 |
| 20260509161504 | 23 | 163 | 3.2 | 8.0 | 0.00 | 0.48 | 0.03 | 84 | 1012.2 |
| 20260509161025 | 23 | 166 | 1.6 | 8.0 | 0.00 | 0.51 | 0.03 | 84 | 1012.3 |
| 20260509160504 | 23 | 167 | 3.2 | 8.0 | 0.00 | 0.53 | 0.03 | 84 | 1012.3 |
| 20260509160004 | 23 | 161 | 3.2 | 8.0 | 0.00 | 0.61 | 0.03 | 84 | 1012.2 |
| 20260509155504 | 23 | 156 | 3.2 | 6.4 | 0.00 | 0.64 | 0.03 | 84 | 1011.9 |
| 20260509155004 | 23 | 143 | 1.6 | 6.4 | 0.00 | 0.66 | 0.03 | 84 | 1011.8 |
| 20260509154504 | 23 | 12 | 1.6 | 3.2 | 0.00 | 0.66 | 0.03 | 84 | 1011.9 |
| 20260509154025 | 23 | 319 | 1.6 | 6.4 | 0.00 | 0.69 | 0.03 | 84 | 1011.8 |
| 20260509153504 | 23 | 256 | 3.2 | 8.0 | 0.00 | 0.71 | 0.03 | 84 | 1011.5 |
| 20260509153004 | 23 | 171 | 4.8 | 8.0 | 0.00 | 0.74 | 0.03 | 84 | 1011.4 |
| 20260509152504 | 22 | 165 | 3.2 | 8.0 | 0.00 | 0.74 | 0.03 | 84 | 1011.2 |
| 20260509152025 | 22 | 178 | 1.6 | 6.4 | 0.00 | 0.74 | 0.03 | 84 | 1011.2 |
| 20260509151504 | 22 | 167 | 1.6 | 3.2 | 0.00 | 0.74 | 0.03 | 84 | 1011.2 |
| 20260509151025 | 22 | 151 | 0.0 | 3.2 | 0.00 | 0.74 | 0.03 | 84 | 1011.3 |
| 20260509150504 | 22 | 131 | 0.0 | 3.2 | 0.00 | 0.74 | 0.03 | 84 | 1011.4 |
| 20260509150004 | 22 | 0 | 0.0 | 0.0 | 0.00 | 0.74 | 0.03 | 84 | 1011.3 |
| 20260509145504 | 22 | 315 | 0.0 | 1.6 | 0.00 | 0.76 | 0.03 | 84 | 1011.4 |
| 20260509145004 | 22 | 325 | 0.0 | 3.2 | 0.00 | 0.79 | 0.03 | 84 | 1011.4 |
| 20260509144504 | 22 | 328 | 0.0 | 3.2 | 0.00 | 0.79 | 0.03 | 84 | 1011.4 |
| 20260509144004 | 22 | 347 | 0.0 | 1.6 | 0.00 | 0.81 | 0.03 | 84 | 1011.3 |
| 20260509143504 | 22 | 347 | 0.0 | 1.6 | 0.00 | 0.84 | 0.03 | 84 | 1011.3 |
| 20260509143004 | 22 | 347 | 0.0 | 3.2 | 0.00 | 0.86 | 0.03 | 85 | 1011.5 |
| 20260509142504 | 22 | 14 | 1.6 | 3.2 | 0.00 | 0.89 | 0.03 | 85 | 1011.6 |
| 20260509142004 | 22 | 76 | 0.0 | 3.2 | 0.00 | 0.89 | 0.03 | 85 | 1011.6 |
| 20260509141504 | 22 | 107 | 0.0 | 1.6 | 0.00 | 0.91 | 0.03 | 85 | 1011.7 |
| 20260509141004 | 22 | 0 | 0.0 | 0.0 | 0.00 | 0.91 | 0.03 | 85 | 1011.8 |
| 20260509140504 | 22 | 0 | 0.0 | 0.0 | 0.00 | 0.94 | 0.03 | 85 | 1011.8 |
| 20260509140005 | 22 | 107 | 0.0 | 1.6 | 0.00 | 0.97 | 0.03 | 85 | 1011.9 |
| 20260509135504 | 22 | 107 | 0.0 | 1.6 | 0.00 | 0.97 | 0.03 | 85 | 1011.9 |
| 20260509135004 | 22 | 107 | 0.0 | 1.6 | 0.00 | 1.02 | 0.03 | 85 | 1011.8 |
| 20260509134525 | 22 | 107 | 0.0 | 1.6 | 0.00 | 1.07 | 0.03 | 85 | 1012.0 |
| 20260509134004 | 22 | 182 | 0.0 | 1.6 | 0.00 | 1.07 | 0.03 | 85 | 1011.9 |
| 20260509133504 | 22 | 182 | 0.0 | 1.6 | 0.00 | 1.07 | 0.03 | 85 | 1012.0 |
| 20260509133004 | 22 | 185 | 0.0 | 3.2 | 0.00 | 1.07 | 0.03 | 85 | 1012.0 |
| 20260509132504 | 22 | 187 | 0.0 | 3.2 | 0.00 | 1.07 | 0.03 | 85 | 1012.0 |
| 20260509132004 | 22 | 188 | 0.0 | 1.6 | 0.00 | 1.07 | 0.03 | 85 | 1011.9 |
| 20260509131504 | 22 | 169 | 0.0 | 4.8 | 0.00 | 1.07 | 0.03 | 85 | 1011.9 |
| 20260509131004 | 22 | 168 | 1.6 | 4.8 | 0.00 | 1.07 | 0.03 | 85 | 1011.8 |
| 20260509130504 | 22 | 165 | 1.6 | 4.8 | 0.00 | 1.07 | 0.03 | 85 | 1011.5 |
| 20260509130004 | 22 | 165 | 1.6 | 3.2 | 0.00 | 1.07 | 0.03 | 85 | 1011.6 |
| 20260509125504 | 21 | 192 | 0.0 | 1.6 | 0.00 | 1.07 | 0.03 | 85 | 1011.5 |
| 20260509125004 | 21 | 225 | 0.0 | 1.6 | 0.00 | 1.07 | 0.03 | 85 | 1011.5 |
| 20260509124504 | 21 | 170 | 1.6 | 4.8 | 0.00 | 1.07 | 0.03 | 86 | 1011.4 |
| 20260509124004 | 21 | 164 | 1.6 | 6.4 | 0.00 | 1.07 | 0.03 | 86 | 1011.3 |
| 20260509123525 | 21 | 160 | 1.6 | 6.4 | 0.00 | 1.07 | 0.03 | 86 | 1011.3 |
| 20260509123004 | 21 | 162 | 1.6 | 4.8 | 0.00 | 1.07 | 0.03 | 86 | 1011.4 |
| 20260509122504 | 21 | 163 | 0.0 | 4.8 | 0.00 | 1.07 | 0.03 | 86 | 1011.3 |
| 20260509122004 | 21 | 0 | 0.0 | 0.0 | 0.00 | 1.07 | 0.03 | 86 | 1011.3 |
| 20260509121504 | 21 | 324 | 0.0 | 1.6 | 0.00 | 1.07 | 0.03 | 86 | 1011.2 |
| 20260509121004 | 21 | 324 | 0.0 | 1.6 | 0.00 | 1.07 | 0.03 | 86 | 1011.2 |
| 20260509120504 | 21 | 0 | 0.0 | 0.0 | 0.00 | 1.07 | 0.03 | 86 | 1011.2 |
| 20260509120004 | 21 | 0 | 0.0 | 0.0 | 0.00 | 1.07 | 0.03 | 86 | 1011.2 |
| 20260509115504 | 21 | 0 | 0.0 | 0.0 | 0.00 | 1.07 | 0.03 | 86 | 1011.0 |
| 20260509115004 | 21 | 0 | 0.0 | 0.0 | 0.00 | 1.07 | 0.03 | 86 | 1011.2 |
| 20260509114504 | 21 | 0 | 0.0 | 0.0 | 0.00 | 1.07 | 0.03 | 87 | 1011.2 |
| 20260509114004 | 21 | 0 | 0.0 | 0.0 | 0.00 | 1.07 | 0.03 | 87 | 1011.1 |
| 20260509113504 | 21 | 0 | 0.0 | 0.0 | 0.00 | 1.07 | 0.03 | 87 | 1011.3 |
| 20260509113004 | 21 | 0 | 0.0 | 0.0 | 0.00 | 1.07 | 0.03 | 87 | 1011.1 |
| 20260509112504 | 21 | 0 | 0.0 | 0.0 | 0.00 | 1.07 | 0.03 | 87 | 1011.2 |
| 20260509112004 | 21 | 320 | 0.0 | 3.2 | 0.00 | 1.07 | 0.03 | 87 | 1011.3 |
| 20260509111504 | 21 | 333 | 1.6 | 3.2 | 0.00 | 1.07 | 0.03 | 87 | 1011.3 |
| 20260509111004 | 21 | 346 | 1.6 | 3.2 | 0.00 | 1.07 | 0.03 | 87 | 1011.2 |
| 20260509110525 | 21 | 358 | 1.6 | 3.2 | 0.00 | 1.07 | 0.03 | 87 | 1011.2 |
| 20260509110025 | 21 | 15 | 1.6 | 3.2 | 0.00 | 1.07 | 0.03 | 87 | 1011.0 |
| 20260509105504 | 21 | 37 | 1.6 | 3.2 | 0.00 | 1.07 | 0.03 | 87 | 1011.1 |
| 20260509105004 | 21 | 134 | 0.0 | 1.6 | 0.00 | 1.07 | 0.03 | 87 | 1010.9 |
| 20260509104504 | 21 | 168 | 0.0 | 3.2 | 0.00 | 1.07 | 0.03 | 87 | 1010.8 |
| 20260509104004 | 21 | 170 | 1.6 | 6.4 | 0.00 | 1.07 | 0.03 | 87 | 1010.7 |
| 20260509103504 | 21 | 170 | 1.6 | 6.4 | 0.03 | 1.07 | 0.03 | 87 | 1010.5 |
| 20260509103004 | 21 | 172 | 0.0 | 4.8 | 0.03 | 1.07 | 0.03 | 88 | 1010.6 |
| 20260509102504 | 21 | 0 | 0.0 | 0.0 | 0.03 | 1.07 | 0.03 | 88 | 1010.7 |
| 20260509102004 | 21 | 0 | 0.0 | 0.0 | 0.03 | 1.07 | 0.03 | 88 | 1010.8 |
| 20260509101504 | 21 | 0 | 0.0 | 0.0 | 0.03 | 1.07 | 0.03 | 88 | 1010.7 |
| 20260509101025 | 21 | 0 | 0.0 | 0.0 | 0.03 | 1.07 | 0.03 | 88 | 1010.8 |
| 20260509100504 | 21 | 0 | 0.0 | 0.0 | 0.03 | 1.07 | 0.03 | 88 | 1010.8 |
| 20260509100005 | 21 | 0 | 0.0 | 0.0 | 0.03 | 1.07 | 0.03 | 88 | 1010.9 |
| 20260509095503 | 21 | 0 | 0.0 | 0.0 | 0.03 | 1.07 | 0.03 | 88 | 1010.8 |
| 20260509095004 | 21 | 0 | 0.0 | 0.0 | 0.03 | 1.07 | 0.03 | 88 | 1010.7 |
| 20260509094503 | 21 | 0 | 0.0 | 0.0 | 0.03 | 1.07 | 0.03 | 88 | 1010.7 |
| 20260509094025 | 21 | 0 | 0.0 | 0.0 | 0.03 | 1.07 | 0.03 | 88 | 1010.7 |
| 20260509093504 | 21 | 0 | 0.0 | 0.0 | 0.00 | 1.04 | 0.00 | 88 | 1010.8 |
| 20260509093004 | 21 | 0 | 0.0 | 0.0 | 0.00 | 1.04 | 0.00 | 89 | 1010.9 |
| 20260509092504 | 21 | 0 | 0.0 | 0.0 | 0.00 | 1.04 | 0.00 | 89 | 1010.9 |
| 20260509092004 | 21 | 0 | 0.0 | 0.0 | 0.00 | 1.04 | 0.00 | 89 | 1010.9 |
| 20260509091504 | 21 | 0 | 0.0 | 0.0 | 0.00 | 1.04 | 0.00 | 89 | 1011.0 |
| 20260509091004 | 21 | 0 | 0.0 | 0.0 | 0.00 | 1.04 | 0.00 | 89 | 1011.0 |
| 20260509090525 | 21 | 0 | 0.0 | 0.0 | 0.00 | 1.04 | 0.00 | 89 | 1011.1 |
| 20260509090004 | 21 | 0 | 0.0 | 0.0 | 0.00 | 1.04 | 0.00 | 89 | 1011.1 |
| 20260509085504 | 21 | 0 | 0.0 | 0.0 | 0.00 | 1.04 | 0.00 | 89 | 1011.0 |
| 20260509085004 | 21 | 0 | 0.0 | 0.0 | 0.00 | 1.04 | 0.00 | 89 | 1010.8 |
| 20260509084504 | 21 | 0 | 0.0 | 0.0 | 0.00 | 1.04 | 0.00 | 89 | 1010.5 |
| 20260509084003 | 21 | 0 | 0.0 | 0.0 | 0.00 | 1.04 | 0.00 | 90 | 1010.4 |
| 20260509083504 | 21 | 0 | 0.0 | 0.0 | 0.00 | 1.04 | 0.00 | 90 | 1010.7 |
| 20260509083004 | 21 | 0 | 0.0 | 0.0 | 0.00 | 1.04 | 0.00 | 90 | 1010.8 |
| 20260509082504 | 21 | 17 | 0.0 | 3.2 | 0.00 | 1.04 | 0.00 | 90 | 1010.8 |
| 20260509082004 | 21 | 17 | 1.6 | 3.2 | 0.00 | 1.04 | 0.00 | 90 | 1010.9 |
| 20260509081504 | 21 | 17 | 0.0 | 3.2 | 0.00 | 1.04 | 0.00 | 90 | 1011.0 |
| 20260509081024 | 21 | 0 | 0.0 | 0.0 | 0.00 | 1.04 | 0.00 | 90 | 1011.0 |
| 20260509080504 | 21 | 0 | 0.0 | 0.0 | 0.00 | 1.04 | 0.00 | 90 | 1011.2 |
| 20260509080004 | 21 | 0 | 0.0 | 0.0 | 0.00 | 1.04 | 0.00 | 90 | 1011.2 |
| 20260509075504 | 21 | 0 | 0.0 | 0.0 | 0.00 | 1.04 | 0.00 | 90 | 1011.4 |
| 20260509075003 | 21 | 0 | 0.0 | 0.0 | 0.00 | 1.04 | 0.00 | 91 | 1011.4 |
| 20260509074504 | 21 | 17 | 0.0 | 1.6 | 0.00 | 1.04 | 0.00 | 91 | 1011.4 |
| 20260509074004 | 21 | 17 | 0.0 | 1.6 | 0.00 | 1.04 | 0.00 | 91 | 1011.4 |
| 20260509073525 | 21 | 17 | 0.0 | 1.6 | 0.00 | 1.04 | 0.00 | 91 | 1011.4 |
| 20260509073004 | 21 | 0 | 0.0 | 0.0 | 0.00 | 1.04 | 0.00 | 91 | 1011.5 |
| 20260509072503 | 21 | 0 | 0.0 | 0.0 | 0.00 | 1.04 | 0.00 | 91 | 1011.5 |
| 20260509072003 | 21 | 0 | 0.0 | 0.0 | 0.00 | 1.04 | 0.00 | 91 | 1011.5 |
| 20260509071504 | 21 | 0 | 0.0 | 0.0 | 0.00 | 1.04 | 0.00 | 91 | 1011.5 |
| 20260509071003 | 21 | 0 | 0.0 | 0.0 | 0.00 | 1.04 | 0.00 | 91 | 1011.5 |
| 20260509070504 | 21 | 0 | 0.0 | 0.0 | 0.00 | 1.04 | 0.00 | 92 | 1011.5 |
| 20260509070003 | 21 | 17 | 0.0 | 1.6 | 0.00 | 1.04 | 0.00 | 92 | 1011.5 |
| 20260509065504 | 21 | 17 | 0.0 | 3.2 | 0.00 | 1.04 | 0.00 | 92 | 1011.6 |
| 20260509065003 | 21 | 58 | 1.6 | 3.2 | 0.00 | 1.04 | 0.00 | 92 | 1011.6 |
| 20260509064504 | 21 | 125 | 1.6 | 3.2 | 0.00 | 1.04 | 0.00 | 92 | 1011.5 |
| 20260509064004 | 21 | 134 | 0.0 | 3.2 | 0.00 | 1.04 | 0.00 | 92 | 1011.6 |
| 20260509063524 | 21 | 135 | 0.0 | 1.6 | 0.00 | 1.04 | 0.00 | 92 | 1011.8 |
| 20260509063003 | 21 | 73 | 0.0 | 1.6 | 0.00 | 1.04 | 0.00 | 92 | 1011.6 |
| 20260509062524 | 21 | 78 | 0.0 | 3.2 | 0.00 | 1.04 | 0.00 | 92 | 1011.6 |
| 20260509062024 | 21 | 153 | 0.0 | 4.8 | 0.00 | 1.04 | 0.00 | 92 | 1011.6 |
| 20260509061504 | 21 | 188 | 1.6 | 4.8 | 0.00 | 1.04 | 0.00 | 93 | 1011.4 |
| 20260509061003 | 21 | 193 | 1.6 | 4.8 | 0.00 | 1.04 | 0.00 | 93 | 1011.3 |
| 20260509060503 | 21 | 197 | 1.6 | 4.8 | 0.00 | 1.04 | 0.00 | 93 | 1011.5 |
| 20260509060004 | 21 | 204 | 0.0 | 3.2 | 0.00 | 1.04 | 0.00 | 93 | 1011.6 |
| 20260509055503 | 21 | 190 | 0.0 | 3.2 | 0.00 | 1.04 | 0.00 | 93 | 1011.6 |
| 20260509055004 | 21 | 205 | 0.0 | 3.2 | 0.00 | 1.04 | 0.00 | 93 | 1011.6 |
| 20260509054504 | 21 | 228 | 0.0 | 1.6 | 0.00 | 1.04 | 0.00 | 93 | 1011.6 |
| 20260509054003 | 21 | 222 | 1.6 | 3.2 | 0.00 | 1.04 | 0.00 | 93 | 1011.6 |
| 20260509053504 | 21 | 219 | 1.6 | 3.2 | 0.00 | 1.04 | 0.00 | 93 | 1011.5 |
| 20260509053004 | 21 | 205 | 0.0 | 3.2 | 0.00 | 1.04 | 0.00 | 93 | 1011.4 |
| 20260509052503 | 21 | 205 | 1.6 | 3.2 | 0.00 | 1.04 | 0.00 | 93 | 1011.5 |
| 20260509052004 | 21 | 215 | 1.6 | 3.2 | 0.00 | 1.04 | 0.00 | 93 | 1011.5 |
| 20260509051504 | 21 | 193 | 1.6 | 6.4 | 0.00 | 1.04 | 0.00 | 93 | 1011.5 |
| 20260509051004 | 21 | 182 | 1.6 | 6.4 | 0.00 | 1.04 | 0.00 | 93 | 1011.4 |
| 20260509050503 | 21 | 189 | 1.6 | 6.4 | 0.00 | 1.04 | 0.00 | 93 | 1011.4 |
| 20260509050003 | 21 | 197 | 1.6 | 6.4 | 0.00 | 1.04 | 0.00 | 93 | 1011.4 |
| 20260509045503 | 21 | 195 | 1.6 | 6.4 | 0.00 | 1.04 | 1.04 | 93 | 1011.5 |
| 20260509045003 | 21 | 193 | 3.2 | 9.7 | 0.00 | 1.04 | 1.04 | 93 | 1011.5 |
| 20260509044525 | 21 | 183 | 1.6 | 9.7 | 0.00 | 1.04 | 1.04 | 93 | 1011.5 |
| 20260509044003 | 21 | 176 | 1.6 | 6.4 | 0.00 | 1.04 | 1.04 | 93 | 1011.6 |
| 20260509043503 | 21 | 171 | 1.6 | 6.4 | 0.00 | 1.04 | 1.04 | 93 | 1011.5 |
| 20260509043004 | 21 | 159 | 3.2 | 8.0 | 0.00 | 1.04 | 1.04 | 93 | 1011.6 |
| 20260509042503 | 21 | 157 | 3.2 | 8.0 | 0.00 | 1.04 | 1.04 | 93 | 1011.5 |
| 20260509042004 | 21 | 162 | 3.2 | 6.4 | 0.00 | 1.04 | 1.04 | 93 | 1011.6 |
| 20260509041525 | 21 | 162 | 1.6 | 6.4 | 0.00 | 1.04 | 1.04 | 93 | 1011.5 |
| 20260509041003 | 21 | 156 | 1.6 | 3.2 | 0.00 | 1.04 | 1.04 | 93 | 1011.6 |
| 20260509040524 | 21 | 150 | 0.0 | 3.2 | 0.00 | 1.04 | 1.04 | 93 | 1011.5 |
| 20260509040004 | 21 | 137 | 0.0 | 1.6 | 0.00 | 1.04 | 1.04 | 93 | 1011.4 |
| 20260509035504 | 21 | 146 | 0.0 | 3.2 | 0.00 | 1.04 | 1.04 | 93 | 1011.3 |
| 20260509035024 | 21 | 119 | 1.6 | 8.0 | 0.00 | 1.04 | 1.04 | 93 | 1011.3 |
| 20260509034503 | 21 | 132 | 1.6 | 8.0 | 0.00 | 1.04 | 1.04 | 93 | 1011.2 |
| 20260509034004 | 21 | 163 | 1.6 | 6.4 | 0.00 | 1.04 | 1.04 | 93 | 1011.1 |
| 20260509033503 | 21 | 161 | 1.6 | 8.0 | 0.00 | 1.04 | 1.04 | 93 | 1011.2 |
| 20260509033003 | 21 | 153 | 1.6 | 8.0 | 0.00 | 1.04 | 1.04 | 93 | 1011.2 |
| 20260509032503 | 21 | 158 | 1.6 | 4.8 | 0.00 | 1.04 | 1.04 | 93 | 1011.2 |
| 20260509032003 | 21 | 156 | 1.6 | 6.4 | 0.00 | 1.04 | 1.04 | 93 | 1011.1 |
| 20260509031503 | 21 | 161 | 3.2 | 9.7 | 0.00 | 1.04 | 1.04 | 93 | 1011.1 |
| 20260509031003 | 21 | 162 | 3.2 | 9.7 | 0.00 | 1.04 | 1.04 | 93 | 1011.1 |
| 20260509030503 | 21 | 147 | 1.6 | 6.4 | 0.00 | 1.04 | 1.04 | 93 | 1011.2 |
| 20260509030025 | 21 | 132 | 1.6 | 6.4 | 0.00 | 1.04 | 1.04 | 93 | 1011.2 |
| 20260509025503 | 21 | 130 | 1.6 | 6.4 | 0.00 | 1.04 | 1.04 | 93 | 1011.0 |
| 20260509025003 | 21 | 125 | 1.6 | 4.8 | 0.00 | 1.04 | 1.04 | 93 | 1011.0 |
| 20260509024503 | 21 | 128 | 3.2 | 4.8 | 0.00 | 1.04 | 1.04 | 93 | 1010.9 |
| 20260509024003 | 21 | 135 | 1.6 | 4.8 | 0.00 | 1.04 | 1.04 | 93 | 1010.9 |
| 20260509023503 | 21 | 140 | 1.6 | 4.8 | 0.00 | 1.04 | 1.04 | 93 | 1010.8 |
| 20260509023024 | 21 | 156 | 1.6 | 3.2 | 0.00 | 1.04 | 1.04 | 93 | 1010.8 |
| 20260509022503 | 21 | 135 | 1.6 | 4.8 | 0.00 | 1.04 | 1.04 | 93 | 1010.5 |
| 20260509022003 | 21 | 121 | 1.6 | 6.4 | 0.00 | 1.04 | 1.04 | 93 | 1010.5 |
| 20260509021524 | 21 | 124 | 1.6 | 6.4 | 0.00 | 1.04 | 1.04 | 93 | 1010.4 |
| 20260509021024 | 21 | 135 | 1.6 | 6.4 | 0.00 | 1.04 | 1.04 | 93 | 1010.3 |
| 20260509020503 | 21 | 164 | 1.6 | 6.4 | 0.00 | 1.04 | 1.04 | 93 | 1010.4 |
| 20260509020003 | 21 | 171 | 1.6 | 6.4 | 0.00 | 1.04 | 1.04 | 93 | 1010.4 |
| 20260509015524 | 21 | 171 | 1.6 | 6.4 | 0.00 | 1.04 | 1.04 | 93 | 1010.2 |
| 20260509015003 | 21 | 181 | 1.6 | 6.4 | 0.00 | 1.04 | 1.04 | 93 | 1010.2 |
| 20260509014503 | 21 | 193 | 1.6 | 4.8 | 0.00 | 1.04 | 1.04 | 93 | 1010.2 |
| 20260509014003 | 21 | 197 | 1.6 | 4.8 | 0.00 | 1.04 | 1.04 | 93 | 1010.3 |
| 20260509013503 | 21 | 191 | 0.0 | 3.2 | 0.00 | 1.04 | 1.04 | 93 | 1010.3 |
| 20260509013003 | 21 | 0 | 0.0 | 0.0 | 0.00 | 1.04 | 1.04 | 93 | 1010.1 |
| 20260509012503 | 21 | 0 | 0.0 | 0.0 | 0.00 | 1.04 | 1.04 | 93 | 1010.2 |
| 20260509012003 | 21 | 0 | 0.0 | 0.0 | 0.00 | 1.04 | 1.04 | 93 | 1010.2 |
| 20260509011503 | 21 | 162 | 0.0 | 1.6 | 0.00 | 1.04 | 1.04 | 92 | 1010.3 |
| 20260509011024 | 21 | 162 | 0.0 | 1.6 | 0.00 | 1.04 | 1.04 | 92 | 1010.4 |
| 20260509010503 | 22 | 0 | 0.0 | 0.0 | 0.00 | 1.04 | 1.04 | 92 | 1010.5 |
| 20260509010004 | 22 | 162 | 0.0 | 1.6 | 0.00 | 1.04 | 1.04 | 92 | 1010.5 |
| 20260509005503 | 22 | 162 | 0.0 | 1.6 | 0.00 | 1.04 | 1.04 | 92 | 1010.6 |
| 20260509005003 | 22 | 122 | 0.0 | 1.6 | 0.00 | 1.04 | 1.04 | 92 | 1010.4 |
| 20260509004503 | 22 | 129 | 0.0 | 1.6 | 0.00 | 1.04 | 1.04 | 91 | 1010.4 |
| 20260509004003 | 22 | 141 | 0.0 | 3.2 | 0.00 | 1.04 | 1.04 | 91 | 1010.3 |
| 20260509003504 | 22 | 160 | 1.6 | 3.2 | 0.00 | 1.04 | 1.04 | 91 | 1010.5 |
| 20260509003024 | 22 | 133 | 1.6 | 3.2 | 0.00 | 1.04 | 1.04 | 91 | 1010.7 |
| 20260509002503 | 22 | 95 | 1.6 | 3.2 | 0.00 | 1.04 | 1.04 | 91 | 1010.7 |
| 20260509002024 | 22 | 170 | 1.6 | 3.2 | 0.00 | 1.04 | 1.04 | 91 | 1010.7 |
| 20260509001503 | 22 | 181 | 1.6 | 3.2 | 0.00 | 1.04 | 1.04 | 91 | 1010.9 |
| 20260509001004 | 22 | 181 | 0.0 | 3.2 | 0.00 | 1.04 | 1.04 | 90 | 1011.1 |
| 20260509000504 | 22 | 181 | 1.6 | 3.2 | 0.00 | 1.04 | 1.04 | 90 | 1011.2 |
| 20260509000004 | 22 | 169 | 1.6 | 3.2 | 0.00 | 1.04 | 1.04 | 90 | 1011.2 |
| 20260508235503 | 22 | 167 | 1.6 | 3.2 | 0.00 | 1.04 | 1.04 | 89 | 1011.1 |
| 20260508235003 | 23 | 16 | 1.6 | 4.8 | 0.00 | 1.04 | 1.04 | 89 | 1011.2 |